TimeAKDT,TemperatureF,Dew PointF,Humidity,Sea Level PressureIn,VisibilityMPH,Wind Direction,Wind SpeedMPH,Gust SpeedMPH,PrecipitationIn,Events,Conditions,WindDirDegrees,DateUTC
12:16 AM,35.6,35.6,100,30.10,10.0,Calm,Calm,-,N/A,,Clear,0,2012-10-29 08:16:00
12:36 AM,37.4,35.6,93,30.11,10.0,Calm,Calm,-,N/A,,Clear,0,2012-10-29 08:36:00
12:56 AM,33.8,33.8,100,30.11,10.0,Calm,Calm,-,N/A,,Clear,0,2012-10-29 08:56:00
1:16 AM,35.6,33.8,93,30.11,10.0,Calm,Calm,-,N/A,,Clear,0,2012-10-29 09:16:00
1:36 AM,35.6,33.8,93,30.11,10.0,Calm,Calm,-,N/A,,Clear,0,2012-10-29 09:36:00
1:56 AM,35.6,33.8,93,30.11,10.0,Calm,Calm,-,N/A,,Clear,0,2012-10-29 09:56:00
2:16 AM,35.6,33.8,93,30.11,10.0,Calm,Calm,-,N/A,,Clear,0,2012-10-29 10:16:00
2:36 AM,33.8,32.0,93,30.11,10.0,Calm,Calm,-,N/A,,Clear,0,2012-10-29 10:36:00
2:56 AM,33.8,33.8,100,30.12,10.0,Calm,Calm,-,N/A,,Clear,0,2012-10-29 10:56:00
3:16 AM,35.6,33.8,93,30.12,10.0,Calm,Calm,-,N/A,,Clear,0,2012-10-29 11:16:00
3:36 AM,35.6,33.8,93,30.12,10.0,Calm,Calm,-,N/A,,Clear,0,2012-10-29 11:36:00
3:56 AM,33.8,32.0,93,30.12,10.0,Calm,Calm,-,N/A,,Clear,0,2012-10-29 11:56:00
4:16 AM,35.6,33.8,93,30.12,10.0,Calm,Calm,-,N/A,,Clear,0,2012-10-29 12:16:00
4:36 AM,33.8,32.0,93,30.12,10.0,Calm,Calm,-,N/A,,Clear,0,2012-10-29 12:36:00
4:56 AM,37.4,33.8,87,30.12,10.0,West,5.8,-,N/A,,Clear,270,2012-10-29 12:56:00
5:16 AM,37.4,33.8,87,30.12,10.0,Calm,Calm,-,N/A,,Clear,0,2012-10-29 13:16:00
5:36 AM,35.6,33.8,93,30.12,10.0,West,3.5,-,N/A,,Clear,280,2012-10-29 13:36:00
5:56 AM,35.6,33.8,93,30.12,10.0,Calm,Calm,-,N/A,,Clear,0,2012-10-29 13:56:00
6:16 AM,35.6,33.8,93,30.12,10.0,WNW,6.9,-,N/A,,Clear,290,2012-10-29 14:16:00
6:36 AM,35.6,33.8,93,30.12,10.0,Calm,Calm,-,N/A,,Clear,0,2012-10-29 14:36:00
6:56 AM,35.6,33.8,93,30.12,10.0,Calm,Calm,-,N/A,,Clear,0,2012-10-29 14:56:00
7:16 AM,35.6,33.8,93,30.12,10.0,NE,3.5,-,N/A,,Clear,40,2012-10-29 15:16:00
7:36 AM,35.6,33.8,93,30.12,10.0,Calm,Calm,-,N/A,,Clear,0,2012-10-29 15:36:00
7:56 AM,35.6,33.8,93,30.12,10.0,Calm,Calm,-,N/A,,Clear,0,2012-10-29 15:56:00
8:16 AM,37.4,33.8,87,30.12,10.0,Calm,Calm,-,N/A,,Clear,0,2012-10-29 16:16:00
8:36 AM,33.8,32.0,93,30.11,10.0,Calm,Calm,-,N/A,,Clear,0,2012-10-29 16:36:00
8:56 AM,35.6,33.8,93,30.12,10.0,Calm,Calm,-,N/A,,Clear,0,2012-10-29 16:56:00
9:36 AM,35.6,33.8,93,30.12,10.0,NNW,3.5,-,N/A,,Clear,340,2012-10-29 17:36:00
9:56 AM,37.4,33.8,87,30.13,10.0,Calm,Calm,-,N/A,,Clear,0,2012-10-29 17:56:00
10:16 AM,35.6,32.0,87,30.13,10.0,Calm,Calm,-,N/A,,Clear,0,2012-10-29 18:16:00
10:36 AM,37.4,33.8,87,30.14,10.0,WNW,11.5,-,N/A,,Clear,290,2012-10-29 18:36:00
10:56 AM,37.4,33.8,87,30.14,10.0,West,8.1,-,N/A,,Clear,280,2012-10-29 18:56:00
11:16 AM,39.2,33.8,81,30.14,10.0,WNW,5.8,-,N/A,,Clear,300,2012-10-29 19:16:00
11:36 AM,39.2,33.8,81,30.14,10.0,WNW,8.1,-,N/A,,Clear,300,2012-10-29 19:36:00
11:56 AM,39.2,33.8,81,30.14,10.0,WNW,6.9,-,N/A,,Partly Cloudy,290,2012-10-29 19:56:00
12:16 PM,42.8,33.8,70,30.14,10.0,NNW,9.2,-,N/A,,Partly Cloudy,330,2012-10-29 20:16:00
12:36 PM,42.8,35.6,76,30.14,10.0,WNW,8.1,-,N/A,,Partly Cloudy,290,2012-10-29 20:36:00
12:56 PM,42.8,33.8,70,30.14,10.0,WNW,8.1,-,N/A,,Partly Cloudy,300,2012-10-29 20:56:00
1:16 PM,42.8,33.8,70,30.14,10.0,NW,9.2,-,N/A,,Partly Cloudy,310,2012-10-29 21:16:00
1:36 PM,42.8,33.8,70,30.14,10.0,WNW,8.1,-,N/A,,Partly Cloudy,300,2012-10-29 21:36:00
1:56 PM,42.8,33.8,70,30.14,10.0,NW,10.4,-,N/A,,Partly Cloudy,310,2012-10-29 21:56:00
2:16 PM,42.8,33.8,70,30.14,10.0,NW,11.5,-,N/A,,Partly Cloudy,320,2012-10-29 22:16:00
2:36 PM,42.8,35.6,76,30.14,10.0,NNW,15.0,-,N/A,,Partly Cloudy,330,2012-10-29 22:36:00
2:56 PM,42.8,35.6,76,30.13,10.0,NW,13.8,-,N/A,,Partly Cloudy,320,2012-10-29 22:56:00
3:16 PM,42.8,35.6,76,30.14,10.0,NNW,10.4,-,N/A,,Partly Cloudy,330,2012-10-29 23:16:00
3:36 PM,42.8,35.6,76,30.13,10.0,NNW,12.7,-,N/A,,Partly Cloudy,330,2012-10-29 23:36:00
3:56 PM,41.0,35.6,81,30.13,10.0,NNW,18.4,-,N/A,,Scattered Clouds,340,2012-10-29 23:56:00
4:16 PM,42.8,35.6,76,30.12,10.0,NNW,16.1,23.0,N/A,,Scattered Clouds,330,2012-10-30 00:16:00
4:36 PM,42.8,35.6,76,30.12,10.0,NNW,16.1,-,N/A,,Scattered Clouds,340,2012-10-30 00:36:00
4:56 PM,42.8,35.6,76,30.11,10.0,NNW,15.0,-,N/A,,Partly Cloudy,340,2012-10-30 00:56:00
5:16 PM,42.8,35.6,76,30.11,10.0,NNW,20.7,-,N/A,,Partly Cloudy,340,2012-10-30 01:16:00
5:36 PM,41.0,35.6,81,30.11,10.0,North,15.0,-,N/A,,Partly Cloudy,350,2012-10-30 01:36:00
6:16 PM,41.0,35.6,81,30.12,10.0,NNW,15.0,-,N/A,,Partly Cloudy,330,2012-10-30 02:16:00
6:36 PM,41.0,35.6,81,30.12,10.0,NNW,12.7,19.6,N/A,,Partly Cloudy,340,2012-10-30 02:36:00
6:56 PM,39.2,35.6,87,30.12,10.0,NNW,5.8,-,N/A,,Partly Cloudy,340,2012-10-30 02:56:00
7:16 PM,39.2,35.6,87,30.11,10.0,NNW,21.9,-,N/A,,Partly Cloudy,330,2012-10-30 03:16:00
7:36 PM,39.2,35.6,87,30.11,10.0,NW,19.6,27.6,N/A,,Partly Cloudy,320,2012-10-30 03:36:00
7:56 PM,39.2,35.6,87,30.12,10.0,NNW,19.6,24.2,N/A,,Partly Cloudy,340,2012-10-30 03:56:00
8:16 PM,39.2,35.6,87,30.12,10.0,North,17.3,24.2,N/A,,Clear,350,2012-10-30 04:16:00
8:36 PM,39.2,35.6,87,30.12,10.0,North,20.7,-,N/A,,Clear,350,2012-10-30 04:36:00
8:56 PM,39.2,35.6,87,30.12,10.0,NNW,20.7,-,N/A,,Clear,330,2012-10-30 04:56:00
9:16 PM,37.4,35.6,93,30.12,10.0,NNW,19.6,25.3,N/A,,Partly Cloudy,330,2012-10-30 05:16:00
9:36 PM,37.4,33.8,87,30.12,10.0,NNW,18.4,-,N/A,,Clear,340,2012-10-30 05:36:00
9:56 PM,37.4,33.8,87,30.13,10.0,NNW,17.3,23.0,N/A,,Clear,340,2012-10-30 05:56:00
10:16 PM,37.4,33.8,87,30.13,10.0,NNW,18.4,23.0,N/A,,Clear,340,2012-10-30 06:16:00
10:36 PM,37.4,33.8,87,30.13,10.0,NNW,17.3,24.2,N/A,,Clear,340,2012-10-30 06:36:00
10:56 PM,37.4,35.6,93,30.12,10.0,NNW,24.2,27.6,N/A,,Clear,340,2012-10-30 06:56:00
11:16 PM,37.4,35.6,93,30.12,10.0,NNW,26.5,-,N/A,,Clear,340,2012-10-30 07:16:00
11:36 PM,37.4,33.8,87,30.13,10.0,NNW,23.0,28.8,N/A,,Clear,340,2012-10-30 07:36:00
11:56 PM,37.4,33.8,87,30.14,10.0,NNW,21.9,26.5,N/A,,Clear,340,2012-10-30 07:56:00